When you browse on this site, cookies collect data to enhance your experience and personalize the content and advertising you see.
Visit our Privacy Policy to learn more. By continuing to use the site, you agree to this use of cookies and data.
  • In Österreich
  • Länderverzeichnis
  • Für 7 Tage
  • Wassertemperatur
  • Wetterkarte
  • News
  • Widgets
  • user-avatar
    Anmelden

    Stündliche Wetter Tasbulak

    Heute, 4 Juni, Donnerstag

    Zeit Temperatur Niederschläge Wind Luftdruck Luftfeuchtigkeit
    00:00 +15°C° 0 mm 5 m/S 738 mmHg 63%
    01:00 +15°C° 0 mm 4 m/S 738 mmHg 65%
    02:00 +14°C° 0 mm 4 m/S 738 mmHg 65%
    03:00 +14°C° 0 mm 4 m/S 738 mmHg 66%
    04:00 +13°C° 0 mm 4 m/S 738 mmHg 69%
    05:00 +14°C° 0 mm 5 m/S 738 mmHg 65%
    06:00 +15°C° 0 mm 6 m/S 738 mmHg 60%
    07:00 +16°C° 0 mm 6 m/S 739 mmHg 56%
    08:00 +17°C° 0 mm 6 m/S 739 mmHg 52%
    09:00 +20°C° 0 mm 7 m/S 739 mmHg 47%
    10:00 +21°C° 0 mm 7 m/S 739 mmHg 43%
    11:00 +22°C° 0 mm 7 m/S 739 mmHg 40%
    12:00 +22°C° 0 mm 6 m/S 739 mmHg 38%
    13:00 +23°C° 0 mm 6 m/S 739 mmHg 35%
    14:00 +23°C° 0 mm 6 m/S 739 mmHg 35%
    15:00 +23°C° 0 mm 6 m/S 739 mmHg 34%
    16:00 +23°C° 0 mm 6 m/S 739 mmHg 33%
    17:00 +22°C° 0 mm 6 m/S 739 mmHg 37%
    18:00 +21°C° 0 mm 5 m/S 739 mmHg 40%
    19:00 +20°C° 0 mm 4 m/S 739 mmHg 43%
    20:00 +19°C° 0 mm 5 m/S 740 mmHg 46%
    21:00 +17°C° 0 mm 5 m/S 740 mmHg 49%
    22:00 +15°C° 0 mm 5 m/S 741 mmHg 52%
    23:00 +15°C° 0 mm 5 m/S 741 mmHg 54%

    Morgen, 5 Juni, Freitag

    Zeit Temperatur Niederschläge Wind Luftdruck Luftfeuchtigkeit
    00:00 +14°C° 0 mm 6 m/S 741 mmHg 55%
    01:00 +13°C° 0 mm 6 m/S 741 mmHg 57%
    02:00 +13°C° 0 mm 6 m/S 742 mmHg 58%
    03:00 +11°C° 0 mm 6 m/S 742 mmHg 59%
    04:00 +10°C° 0 mm 6 m/S 742 mmHg 60%
    05:00 +11°C° 0 mm 6 m/S 743 mmHg 56%
    06:00 +13°C° 0 mm 6 m/S 743 mmHg 53%
    07:00 +13°C° 0 mm 6 m/S 743 mmHg 50%
    08:00 +15°C° 0 mm 6 m/S 743 mmHg 46%
    09:00 +16°C° 0 mm 6 m/S 743 mmHg 42%
    10:00 +17°C° 0 mm 6 m/S 744 mmHg 37%
    11:00 +19°C° 0 mm 5 m/S 744 mmHg 34%
    12:00 +20°C° 0 mm 5 m/S 743 mmHg 30%
    13:00 +21°C° 0 mm 5 m/S 743 mmHg 26%
    14:00 +22°C° 0 mm 5 m/S 743 mmHg 26%
    15:00 +22°C° 0 mm 5 m/S 743 mmHg 27%
    16:00 +22°C° 0 mm 5 m/S 743 mmHg 27%
    17:00 +21°C° 0 mm 5 m/S 743 mmHg 30%
    18:00 +20°C° 0 mm 4 m/S 743 mmHg 34%
    19:00 +19°C° 0 mm 4 m/S 743 mmHg 38%
    20:00 +18°C° 0 mm 4 m/S 743 mmHg 40%
    21:00 +17°C° 0 mm 4 m/S 743 mmHg 41%
    22:00 +15°C° 0 mm 4 m/S 744 mmHg 43%
    23:00 +14°C° 0 mm 4 m/S 743 mmHg 44%

    übermorgen, 6 Juni, Samstag

    Zeit Temperatur Niederschläge Wind Luftdruck Luftfeuchtigkeit
    00:00 +14°C° 0 mm 4 m/S 743 mmHg 45%
    01:00 +13°C° 0 mm 4 m/S 743 mmHg 46%
    02:00 +13°C° 0 mm 4 m/S 743 mmHg 47%
    03:00 +13°C° 0 mm 4 m/S 744 mmHg 48%
    04:00 +12°C° 0 mm 4 m/S 744 mmHg 49%
    05:00 +14°C° 0 mm 5 m/S 744 mmHg 46%
    06:00 +15°C° 0 mm 6 m/S 744 mmHg 43%
    07:00 +17°C° 0 mm 6 m/S 744 mmHg 40%
    08:00 +18°C° 0 mm 7 m/S 744 mmHg 37%
    09:00 +21°C° 0 mm 7 m/S 744 mmHg 34%
    10:00 +22°C° 0 mm 7 m/S 744 mmHg 31%
    11:00 +23°C° 0 mm 7 m/S 744 mmHg 30%
    12:00 +24°C° 0 mm 6 m/S 744 mmHg 28%
    13:00 +24°C° 0 mm 6 m/S 744 mmHg 27%
    14:00 +24°C° 0 mm 6 m/S 744 mmHg 27%
    15:00 +24°C° 0 mm 6 m/S 743 mmHg 27%
    16:00 +26°C° 0 mm 5 m/S 743 mmHg 27%
    17:00 +23°C° 0 mm 5 m/S 743 mmHg 30%
    18:00 +22°C° 0 mm 4 m/S 743 mmHg 33%
    19:00 +21°C° 0 mm 4 m/S 743 mmHg 36%
    20:00 +20°C° 0 mm 4 m/S 743 mmHg 37%
    21:00 +19°C° 0 mm 4 m/S 744 mmHg 37%
    22:00 +17°C° 0 mm 4 m/S 744 mmHg 37%
    23:00 +17°C° 0 mm 4 m/S 744 mmHg 40%

    7 Juni, Sonntag

    Zeit Temperatur Niederschläge Wind Luftdruck Luftfeuchtigkeit
    00:00 +15°C° 0 mm 4 m/S 744 mmHg 43%
    01:00 +14°C° 0 mm 4 m/S 744 mmHg 45%
    02:00 +14°C° 0 mm 3 m/S 744 mmHg 48%
    03:00 +13°C° 0 mm 3 m/S 744 mmHg 50%
    04:00 +13°C° 0 mm 2 m/S 744 mmHg 52%
    05:00 +14°C° 0 mm 3 m/S 744 mmHg 49%
    06:00 +17°C° 0 mm 3 m/S 744 mmHg 46%
    07:00 +19°C° 0 mm 4 m/S 745 mmHg 43%
    08:00 +21°C° 0 mm 4 m/S 745 mmHg 38%
    09:00 +22°C° 0 mm 4 m/S 745 mmHg 33%
    10:00 +25°C° 0 mm 5 m/S 745 mmHg 28%
    11:00 +26°C° 0 mm 5 m/S 745 mmHg 27%
    12:00 +26°C° 0 mm 5 m/S 745 mmHg 26%
    13:00 +27°C° 0 mm 5 m/S 745 mmHg 25%
    14:00 +27°C° 0 mm 5 m/S 744 mmHg 25%
    15:00 +27°C° 0 mm 5 m/S 744 mmHg 25%
    16:00 +27°C° 0 mm 4 m/S 744 mmHg 25%
    17:00 +26°C° 0 mm 4 m/S 744 mmHg 29%
    18:00 +25°C° 0 mm 3 m/S 744 mmHg 34%
    19:00 +24°C° 0 mm 3 m/S 743 mmHg 38%
    20:00 +22°C° 0 mm 3 m/S 744 mmHg 40%
    21:00 +20°C° 0 mm 3 m/S 744 mmHg 41%
    22:00 +18°C° 0 mm 4 m/S 744 mmHg 43%
    23:00 +18°C° 0 mm 3 m/S 744 mmHg 45%

    8 Juni, Montag

    Zeit Temperatur Niederschläge Wind Luftdruck Luftfeuchtigkeit
    00:00 +17°C° 0 mm 3 m/S 744 mmHg 46%
    01:00 +17°C° 0 mm 3 m/S 744 mmHg 47%
    02:00 +16°C° 0 mm 3 m/S 744 mmHg 49%
    03:00 +16°C° 0 mm 3 m/S 744 mmHg 50%
    04:00 +14°C° 0 mm 3 m/S 744 mmHg 52%
    05:00 +17°C° 0 mm 3 m/S 744 mmHg 48%
    06:00 +19°C° 0 mm 4 m/S 744 mmHg 45%
    07:00 +22°C° 0 mm 4 m/S 744 mmHg 41%
    08:00 +23°C° 0 mm 4 m/S 745 mmHg 37%
    09:00 +26°C° 0 mm 4 m/S 745 mmHg 34%
    10:00 +27°C° 0 mm 4 m/S 745 mmHg 30%
    11:00 +28°C° 0 mm 4 m/S 745 mmHg 29%
    12:00 +28°C° 0 mm 4 m/S 745 mmHg 28%
    13:00 +28°C° 0 mm 4 m/S 745 mmHg 27%
    14:00 +28°C° 0 mm 3 m/S 744 mmHg 28%
    15:00 +28°C° 0 mm 3 m/S 744 mmHg 28%
    16:00 +28°C° 0 mm 3 m/S 744 mmHg 29%
    17:00 +27°C° 0 mm 2 m/S 744 mmHg 33%
    18:00 +26°C° 0 mm 2 m/S 744 mmHg 36%
    19:00 +25°C° 0 mm 1 m/S 744 mmHg 40%
    20:00 +24°C° 0 mm 1 m/S 744 mmHg 41%
    21:00 +22°C° 0 mm 1 m/S 744 mmHg 43%
    22:00 +21°C° 0 mm 1 m/S 745 mmHg 45%
    23:00 +19°C° 0 mm 2 m/S 745 mmHg 45%

    9 Juni, Dienstag

    Zeit Temperatur Niederschläge Wind Luftdruck Luftfeuchtigkeit
    00:00 +19°C° 0 mm 2 m/S 745 mmHg 46%
    01:00 +18°C° 0 mm 2 m/S 745 mmHg 46%
    02:00 +18°C° 0 mm 3 m/S 745 mmHg 48%
    03:00 +17°C° 0 mm 3 m/S 745 mmHg 50%
    04:00 +17°C° 0 mm 3 m/S 745 mmHg 52%
    05:00 +19°C° 0 mm 3 m/S 745 mmHg 49%
    06:00 +20°C° 0 mm 3 m/S 746 mmHg 47%
    07:00 +22°C° 0 mm 3 m/S 746 mmHg 44%
    08:00 +25°C° 0 mm 3 m/S 746 mmHg 39%
    09:00 +27°C° 0 mm 4 m/S 746 mmHg 35%
    10:00 +28°C° 0 mm 4 m/S 746 mmHg 30%
    11:00 +29°C° 0 mm 4 m/S 746 mmHg 28%
    12:00 +30°C° 0 mm 4 m/S 746 mmHg 27%
    13:00 +30°C° 0 mm 5 m/S 746 mmHg 25%
    14:00 +30°C° 0 mm 4 m/S 746 mmHg 27%
    15:00 +29°C° 0 mm 4 m/S 746 mmHg 29%
    16:00 +29°C° 0 mm 4 m/S 746 mmHg 31%
    17:00 +28°C° 0 mm 3 m/S 745 mmHg 34%
    18:00 +28°C° 0 mm 3 m/S 745 mmHg 36%
    19:00 +27°C° 0 mm 2 m/S 745 mmHg 39%
    20:00 +26°C° 0 mm 2 m/S 745 mmHg 41%
    21:00 +24°C° 0 mm 3 m/S 745 mmHg 43%
    22:00 +22°C° 0 mm 3 m/S 745 mmHg 45%
    23:00 +21°C° 0 mm 3 m/S 745 mmHg 49%
    Mehr zeigen